Погода в Перекопке

Россия / Волгоградская область     49°21′56″N   43°20′24″E
темп.,
°C
ветер,
м/с
пор.,
м/с
влажн.,
%
обл.,
%
осадки,
мм/ч
давл.,
гПа
погр.,
м
16 апреля, пт
пт1600:00+11з356790 0.0 101674
03:00+10з377965 0.0 1017131
06:00+9з34825 0.0 101885
09:00+14з4560100 0.0 1018597
12:00+17з34395 0.0 10181245
15:00+19зюз34353 0.0 10181763
18:00+17з244697 0.0 1018178
21:00+14ююз2250100 0.0 101810
17 апреля, сб
сб1700:00+12з5873100 0.0 1019222
03:00+11зсз1185100 0.1 101967
06:00+11ююз238298 0.0 101996
09:00+12ююз5780100 0.4 1020532
12:00+12ююз237099 3.2 1020819
15:00+14ююз245124 4.0 10201264
18:00+13ююз3459100 0.1 102096
21:00+10юз34705 0.1 102049
18 апреля, вс
вс1800:00+9зюз22634 0.0 102117
03:00+7сз34735 0.0 102148
06:00+6зсз1171100 0.0 102114
09:00+10з2253100 0.0 1021570
12:00+14з2244100 0.0 10201474
15:00+15ссз113997 0.0 10191857
18:00+14ссв114691 0.0 1019175
21:00+11св225298 0.0 101912
19 апреля, пн
пн1900:00+11в225787 0.0 101831
03:00+11юв2258100 0.0 101818
06:00+11ссв1161100 0.0 101811
09:00+12вюв2458100 0.0 1018388
12:00+11вюв5672100 0.1 1018453
15:00+11в4773100 0.1 1017518
18:00+10в4883100 0.1 1017425
21:00+10в51087100 0.1 1016554
20 апреля, вт
вт2000:00+10в61193100 0.0 1015590
03:00+9в81389100 0.0 1014535
06:00+8в111894100 1.1 1011566
09:00+10вюв112094100 6.9 1010846
12:00+10вюв122190100 0.6 1009934
15:00+12вюв81487100 1.4 1011997
18:00+11вюв71495100 12.6 1011677
21:00+10в71396100 25.8 1012632